Okmulgee, OK

2:45 PM CDT on March 27, 2017 (GMT -0500)
Okmulgee Regional

Weather History for KOKM - January, 2014

Change the Weather History Date:

Saturday, January 25, 2014

  Actual Average (KMKO) Record (KMKO)
Temperature  
Mean Temperature 48 °F -  
Max Temperature 64 °F 47 °F 68 °F (2005)
Min Temperature 30 °F 27 °F 19 °F (2001)
Degree Days  
Heating Degree Days 18    
Moisture  
Dew Point 23 °F    
Average Humidity 44    
Maximum Humidity 86    
Minimum Humidity 30    
Precipitation  
Precipitation 0.00 in - - ()
Sea Level Pressure  
Sea Level Pressure 30.01 in    
Wind  
Wind Speed 8 mph (WNW)    
Max Wind Speed 20 mph    
Max Gust Speed 28 mph    
Visibility 10 miles    
Events      
Averages and records for this station are not official NWS values.
T = Trace of Precipitation, MM = Missing Value Source: NWS Daily Summary

Daily Weather History Graph

Daily Weather History Graph

Search for Another Location

Airport or City:

Trip Planner

Search our weather history database for the weather conditions in past years. The results will help you decide how hot, cold, wet, or windy it might be!

Date:

Astronomy

Jan. 25, 2014 Rise Set
Actual Time 7:28 AM CST 5:44 PM CST
Civil Twilight 7:01 AM CST 6:11 PM CST
Nautical Twilight 6:30 AM CST 6:42 PM CST
Astronomical Twilight 6:00 AM CST 7:12 PM CST
Moon 2:02 AM CST (1/25) 12:45 PM CST (1/25)
Length of Visible Light 11h 10m
Length of Day
10h 15m
Waning Crescent, 34% of the Moon is Illuminated
Jan 25
Waning Crescent
Jan 30
New
Feb 6
First Quarter
Feb 14
Full
Feb 22
Last Quarter

Hourly Weather History & Observations

Time (CST) Temp. Windchill Dew Point Humidity Pressure Visibility Wind Dir Wind Speed Gust Speed Precip Events Conditions
12:15 AM 32.0 °F 24.8 °F 7.3 °F 36% 30.07 in 10.0 mi SW 8.1 mph - N/A   Clear
12:35 AM 32.0 °F 24.8 °F 7.5 °F 36% 30.05 in 10.0 mi SSW 8.1 mph - N/A   Clear
12:55 AM 32.0 °F 24.8 °F 7.7 °F 36% 30.04 in 10.0 mi SSW 8.1 mph - N/A   Clear
1:15 AM 31.8 °F 24.6 °F 7.9 °F 37% 30.04 in 10.0 mi SW 8.1 mph - N/A   Clear
1:35 AM 32.0 °F 24.8 °F 7.7 °F 36% 30.03 in 10.0 mi SSW 8.1 mph - N/A   Clear
1:55 AM 31.8 °F 25.4 °F 8.2 °F 37% 30.02 in 10.0 mi SSW 6.9 mph - N/A   Clear
2:15 AM 32.0 °F 24.2 °F 8.6 °F 38% 30.01 in 10.0 mi SW 9.2 mph - N/A   Clear
2:35 AM 32.2 °F 25.0 °F 9.3 °F 39% 30.01 in 10.0 mi SW 8.1 mph - N/A   Clear
2:55 AM 32.9 °F 25.3 °F 9.5 °F 38% 30.00 in 10.0 mi WSW 9.2 mph - N/A   Clear
3:15 AM 32.9 °F 26.7 °F 10.0 °F 39% 30.00 in 10.0 mi WSW 6.9 mph - N/A   Clear
3:35 AM 33.8 °F 27.0 °F 10.2 °F 38% 29.99 in 10.0 mi WSW 8.1 mph - N/A   Clear
3:55 AM 33.8 °F 27.0 °F 10.6 °F 38% 29.98 in 10.0 mi WSW 8.1 mph - N/A   Clear
4:15 AM 33.3 °F 26.4 °F 10.9 °F 40% 29.99 in 10.0 mi WSW 8.1 mph - N/A   Clear
4:35 AM 33.8 °F 27.7 °F 11.1 °F 39% 30.00 in 10.0 mi WSW 6.9 mph - N/A   Clear
4:55 AM 32.9 °F 26.7 °F 11.5 °F 41% 30.00 in 10.0 mi WSW 6.9 mph - N/A   Clear
5:15 AM 33.4 °F - 11.8 °F 41% 30.00 in 10.0 mi Calm Calm - N/A   Clear
5:35 AM 33.3 °F 27.1 °F 11.8 °F 41% 30.00 in 10.0 mi West 6.9 mph - N/A   Clear
5:55 AM 34.0 °F 28.8 °F 12.2 °F 41% 30.01 in 10.0 mi West 5.8 mph - N/A   Clear
6:15 AM 33.4 °F 28.1 °F 12.9 °F 43% 30.01 in 10.0 mi WSW 5.8 mph - N/A   Clear
6:35 AM 33.8 °F 28.6 °F 13.6 °F 44% 30.02 in 10.0 mi WSW 5.8 mph - N/A   Clear
6:55 AM 34.5 °F 29.4 °F 14.0 °F 43% 30.03 in 10.0 mi WSW 5.8 mph - N/A   Clear
7:15 AM 34.7 °F 30.6 °F 14.4 °F 43% 30.03 in 10.0 mi West 4.6 mph - N/A   Clear
7:35 AM 33.8 °F 29.6 °F 14.7 °F 46% 30.03 in 10.0 mi WSW 4.6 mph - N/A   Clear
7:55 AM 35.1 °F 30.1 °F 16.0 °F 46% 30.04 in 10.0 mi NW 5.8 mph - N/A   Clear
8:15 AM 37.0 °F 33.3 °F 16.7 °F 44% 30.05 in 10.0 mi NNW 4.6 mph 16.1 mph N/A   Clear
8:35 AM 39.4 °F 34.5 °F 18.1 °F 42% 30.05 in 10.0 mi NW 6.9 mph - N/A   Clear
8:55 AM 41.2 °F 37.3 °F 19.2 °F 41% 30.06 in 10.0 mi WNW 5.8 mph - N/A   Clear
9:15 AM 43.9 °F 39.3 °F 21.2 °F 41% 30.06 in 10.0 mi West 8.1 mph - N/A   Clear
9:35 AM 46.2 °F 43.3 °F 22.6 °F 39% 30.07 in 10.0 mi West 5.8 mph - N/A   Clear
9:55 AM 48.2 °F - 24.1 °F 39% 30.07 in 10.0 mi West 4.6 mph - N/A   Clear
10:15 AM 50.7 °F - 25.5 °F 38% 30.07 in 10.0 mi West 9.2 mph - N/A   Clear
10:35 AM 53.2 °F - 27.1 °F 37% 30.07 in 10.0 mi NW 5.8 mph - N/A   Clear
10:55 AM 56.8 °F - 31.3 °F 38% 30.06 in 10.0 mi NNW 9.2 mph - N/A   Clear
11:15 AM 59.7 °F - 33.3 °F 37% 30.06 in 10.0 mi North 15.0 mph 21.9 mph N/A   Clear
11:35 AM 59.5 °F - 33.1 °F 37% 30.06 in 10.0 mi NNW 12.7 mph 26.5 mph N/A   Clear
11:55 AM 59.4 °F - 32.9 °F 37% 30.06 in 10.0 mi North 19.6 mph 27.6 mph N/A   Clear
12:15 PM 60.6 °F - 33.3 °F 36% 30.04 in 10.0 mi NNW 13.8 mph 23.0 mph N/A   Clear
12:35 PM 61.5 °F - 33.6 °F 35% 30.04 in 10.0 mi WNW 12.7 mph 20.7 mph N/A   Clear
12:55 PM 63.3 °F - 34.0 °F 33% 30.03 in 10.0 mi NW 6.9 mph 19.6 mph N/A   Clear
1:15 PM 63.3 °F - 34.2 °F 34% 30.02 in 10.0 mi NW 11.5 mph 21.9 mph N/A   Clear
1:35 PM 63.5 °F - 33.8 °F 33% 30.01 in 10.0 mi WNW 13.8 mph 20.7 mph N/A   Clear
1:55 PM 63.7 °F - 33.4 °F 32% 30.00 in 10.0 mi NNW 9.2 mph 17.3 mph N/A   Clear
2:15 PM 64.2 °F - 33.1 °F 31% 30.00 in 10.0 mi NW 11.5 mph 21.9 mph N/A   Clear
2:35 PM 64.2 °F - 33.4 °F 32% 29.99 in 10.0 mi WNW 16.1 mph 24.2 mph N/A   Scattered Clouds
2:55 PM 64.4 °F - 33.3 °F 31% 29.98 in 10.0 mi NNW 11.5 mph 21.9 mph N/A   Clear
3:15 PM 64.9 °F - 33.8 °F 31% 29.99 in 10.0 mi NNW 12.7 mph 18.4 mph N/A   Clear
3:35 PM 64.4 °F - 32.0 °F 30% 29.99 in 10.0 mi NNW 13.8 mph 23.0 mph N/A   Clear
3:55 PM 64.0 °F - 32.0 °F 30% 29.99 in 10.0 mi NNW 10.4 mph 18.4 mph N/A   Clear
4:15 PM 63.5 °F - 31.6 °F 30% 29.99 in 10.0 mi North 16.1 mph 23.0 mph N/A   Clear
4:35 PM 62.6 °F - 31.6 °F 31% 30.00 in 10.0 mi NNW 15.0 mph 20.7 mph N/A   Clear
4:55 PM 61.3 °F - 32.0 °F 33% 30.00 in 10.0 mi NNW 11.5 mph 17.3 mph N/A   Clear
5:15 PM 59.9 °F - 32.0 °F 35% 30.00 in 10.0 mi NW 6.9 mph - N/A   Clear
5:35 PM 54.7 °F - 31.6 °F 42% 30.00 in 10.0 mi NNW 5.8 mph - N/A   Clear
5:55 PM 51.4 °F - 31.1 °F 46% 30.00 in 10.0 mi NNE 10.4 mph 16.1 mph N/A   Clear
6:15 PM 48.9 °F - 30.9 °F 50% 30.01 in 10.0 mi NNE 8.1 mph - N/A   Clear
6:35 PM 47.8 °F - 30.6 °F 51% 30.01 in 10.0 mi NNE 5.8 mph - N/A   Clear
6:55 PM 46.9 °F - 30.6 °F 53% 30.01 in 10.0 mi NE 4.6 mph - N/A   Clear
7:15 PM 44.6 °F - 30.4 °F 57% 30.01 in 10.0 mi Calm Calm - N/A   Clear
7:35 PM 46.4 °F 45.2 °F 30.4 °F 54% 30.01 in 10.0 mi NE 3.5 mph - N/A   Clear
7:55 PM 45.5 °F 44.2 °F 30.0 °F 55% 30.00 in 10.0 mi East 3.5 mph - N/A   Clear
8:15 PM 38.1 °F 34.6 °F 28.4 °F 68% 30.00 in 10.0 mi South 4.6 mph - N/A   Clear
9:15 PM 38.1 °F - 28.6 °F 69% 29.99 in 10.0 mi Calm Calm - N/A   Clear
9:35 PM 37.9 °F - 28.4 °F 69% 29.98 in 10.0 mi Calm Calm - N/A   Clear
9:55 PM 37.2 °F - 28.9 °F 72% 29.98 in 10.0 mi Calm Calm - N/A   Clear
10:15 PM 37.4 °F - 29.3 °F 73% 29.98 in 10.0 mi Calm Calm - N/A   Clear
10:35 PM 35.1 °F 32.2 °F 28.8 °F 78% 29.97 in 10.0 mi WNW 3.5 mph - N/A   Clear
10:55 PM 32.2 °F - 27.5 °F 83% 29.96 in 10.0 mi Calm Calm - N/A   Clear
11:15 PM 33.1 °F - 27.5 °F 80% 29.96 in 10.0 mi Calm Calm - N/A   Clear
11:35 PM 32.2 °F - 27.3 °F 82% 29.94 in 10.0 mi Calm Calm - N/A   Clear
11:55 PM 30.6 °F - 26.8 °F 86% 29.94 in 10.0 mi Calm Calm - N/A   Clear